Time,TemperatureF,DewpointF,PressureIn,WindDirection,WindDirectionDegrees,WindSpeedMPH,WindSpeedGustMPH,Humidity,HourlyPrecipIn,Conditions,Clouds,dailyrainin,SoftwareType,DateUTC
2013-07-18 00:02:00,82.3,68.5,30.18,South,184,0.0,3.0,63,0.00,,---,0.00,VWS V13.01,2013-07-18 05:02:00,
2013-07-18 00:07:00,82.3,68.9,30.18,South,184,0.0,0.0,64,0.00,,---,0.00,VWS V13.01,2013-07-18 05:07:00,
2013-07-18 00:12:00,82.2,68.8,30.18,South,184,0.0,2.0,64,0.00,,---,0.00,VWS V13.01,2013-07-18 05:12:00,
2013-07-18 00:17:00,82.2,68.8,30.17,South,184,0.0,2.0,64,0.00,,---,0.00,VWS V13.01,2013-07-18 05:17:00,
2013-07-18 00:22:00,82.1,68.7,30.17,South,184,0.0,2.0,64,0.00,,---,0.00,VWS V13.01,2013-07-18 05:22:00,
2013-07-18 00:27:00,82.0,69.1,30.17,South,184,0.0,2.0,65,0.00,,---,0.00,VWS V13.01,2013-07-18 05:27:00,
2013-07-18 00:32:00,81.9,69.0,30.17,South,184,0.0,2.0,65,0.00,,---,0.00,VWS V13.01,2013-07-18 05:32:00,
2013-07-18 00:38:00,81.8,68.9,30.17,South,184,0.0,0.0,65,0.00,,---,0.00,VWS V13.01,2013-07-18 05:38:00,
2013-07-18 00:43:00,81.7,69.2,30.17,South,184,0.0,0.0,66,0.00,,---,0.00,VWS V13.01,2013-07-18 05:43:00,
2013-07-18 00:48:00,81.5,69.1,30.17,South,184,0.0,3.0,66,0.00,,---,0.00,VWS V13.01,2013-07-18 05:48:00,
2013-07-18 00:53:00,81.4,69.0,30.17,South,185,0.0,3.0,66,0.00,,---,0.00,VWS V13.01,2013-07-18 05:53:00,
2013-07-18 00:58:00,81.3,68.9,30.17,South,184,0.0,3.0,66,0.00,,---,0.00,VWS V13.01,2013-07-18 05:58:00,
2013-07-18 01:03:00,81.2,69.2,30.17,South,185,0.0,3.0,67,0.00,,---,0.00,VWS V13.01,2013-07-18 06:03:00,
2013-07-18 01:08:00,81.1,69.1,30.16,South,184,0.0,0.0,67,0.00,,---,0.00,VWS V13.01,2013-07-18 06:08:00,
2013-07-18 01:13:00,81.0,69.0,30.16,South,184,0.0,1.0,67,0.00,,---,0.00,VWS V13.01,2013-07-18 06:13:00,
2013-07-18 01:18:00,80.9,68.9,30.16,South,184,0.0,3.0,67,0.00,,---,0.00,VWS V13.01,2013-07-18 06:18:00,
2013-07-18 01:23:00,80.9,68.9,30.16,South,184,0.0,3.0,67,0.00,,---,0.00,VWS V13.01,2013-07-18 06:23:00,
2013-07-18 01:28:00,80.9,68.9,30.16,South,184,0.0,3.0,67,0.00,,---,0.00,VWS V13.01,2013-07-18 06:28:00,
2013-07-18 01:33:00,80.8,69.3,30.16,South,184,0.0,3.0,68,0.00,,---,0.00,VWS V13.01,2013-07-18 06:33:00,
2013-07-18 01:38:00,80.7,69.2,30.16,South,184,0.0,0.0,68,0.00,,---,0.00,VWS V13.01,2013-07-18 06:38:00,
2013-07-18 01:43:00,80.6,69.1,30.16,South,184,0.0,0.0,68,0.00,,---,0.00,VWS V13.01,2013-07-18 06:43:00,
2013-07-18 01:48:00,80.5,69.0,30.16,South,184,0.0,0.0,68,0.00,,---,0.00,VWS V13.01,2013-07-18 06:48:00,
2013-07-18 01:53:00,80.5,69.0,30.16,South,184,0.0,0.0,68,0.00,,---,0.00,VWS V13.01,2013-07-18 06:53:00,
2013-07-18 01:58:00,80.3,68.8,30.16,South,184,0.0,0.0,68,0.00,,---,0.00,VWS V13.01,2013-07-18 06:58:00,
2013-07-18 02:03:00,80.2,68.7,30.16,South,184,0.0,0.0,68,0.00,,---,0.00,VWS V13.01,2013-07-18 07:03:00,
2013-07-18 02:08:00,80.1,68.6,30.15,South,184,0.0,0.0,68,0.00,,---,0.00,VWS V13.01,2013-07-18 07:08:00,
2013-07-18 02:13:00,79.9,68.8,30.16,South,184,0.0,0.0,69,0.00,,---,0.00,VWS V13.01,2013-07-18 07:13:00,
2013-07-18 02:18:00,79.7,69.1,30.15,South,184,0.0,0.0,70,0.00,,---,0.00,VWS V13.01,2013-07-18 07:18:00,
2013-07-18 02:23:00,79.5,68.9,30.15,South,184,0.0,0.0,70,0.00,,---,0.00,VWS V13.01,2013-07-18 07:23:00,
2013-07-18 02:28:00,79.4,68.8,30.15,South,184,0.0,0.0,70,0.00,,---,0.00,VWS V13.01,2013-07-18 07:28:00,
2013-07-18 02:33:00,79.3,68.7,30.15,South,184,0.0,0.0,70,0.00,,---,0.00,VWS V13.01,2013-07-18 07:33:00,
2013-07-18 02:38:00,79.2,68.6,30.15,South,184,0.0,0.0,70,0.00,,---,0.00,VWS V13.01,2013-07-18 07:38:00,
2013-07-18 02:43:00,79.0,68.4,30.15,South,184,0.0,0.0,70,0.00,,---,0.00,VWS V13.01,2013-07-18 07:43:00,
2013-07-18 02:48:00,78.8,68.2,30.14,South,184,0.0,0.0,70,0.00,,---,0.00,VWS V13.01,2013-07-18 07:48:00,
2013-07-18 02:53:00,78.7,68.1,30.14,South,184,0.0,0.0,70,0.00,,---,0.00,VWS V13.01,2013-07-18 07:53:00,
2013-07-18 02:58:00,78.6,68.0,30.14,South,184,0.0,0.0,70,0.00,,---,0.00,VWS V13.01,2013-07-18 07:58:00,
2013-07-18 03:03:00,78.4,68.2,30.14,South,184,0.0,0.0,71,0.00,,---,0.00,VWS V13.01,2013-07-18 08:03:00,
2013-07-18 03:08:00,78.2,68.0,30.14,South,184,0.0,0.0,71,0.00,,---,0.00,VWS V13.01,2013-07-18 08:08:00,
2013-07-18 03:13:00,78.0,68.2,30.14,South,184,0.0,0.0,72,0.00,,---,0.00,VWS V13.01,2013-07-18 08:13:00,
2013-07-18 03:18:00,77.9,68.6,30.14,South,184,0.0,0.0,73,0.00,,---,0.00,VWS V13.01,2013-07-18 08:18:00,
2013-07-18 03:23:00,77.8,68.5,30.14,South,185,0.0,3.0,73,0.00,,---,0.00,VWS V13.01,2013-07-18 08:23:00,
2013-07-18 03:28:00,77.7,68.8,30.14,South,184,0.0,3.0,74,0.00,,---,0.00,VWS V13.01,2013-07-18 08:28:00,
2013-07-18 03:33:00,77.5,68.6,30.13,South,184,0.0,3.0,74,0.00,,---,0.00,VWS V13.01,2013-07-18 08:33:00,
2013-07-18 03:38:00,77.5,69.0,30.13,South,184,0.0,0.0,75,0.00,,---,0.00,VWS V13.01,2013-07-18 08:38:00,
2013-07-18 03:43:00,77.5,69.0,30.14,South,184,0.0,0.0,75,0.00,,---,0.00,VWS V13.01,2013-07-18 08:43:00,
2013-07-18 03:48:00,77.4,68.9,30.14,South,184,0.0,2.0,75,0.00,,---,0.00,VWS V13.01,2013-07-18 08:48:00,
2013-07-18 03:53:00,77.4,68.9,30.14,South,184,0.0,2.0,75,0.00,,---,0.00,VWS V13.01,2013-07-18 08:53:00,
2013-07-18 03:58:00,77.3,68.8,30.14,South,184,1.0,3.0,75,0.00,,---,0.00,VWS V13.01,2013-07-18 08:58:00,
2013-07-18 04:03:00,77.3,68.8,30.14,South,184,1.0,3.0,75,0.00,,---,0.00,VWS V13.01,2013-07-18 09:03:00,
2013-07-18 04:09:00,77.1,68.6,30.14,South,184,0.0,2.0,75,0.00,,---,0.00,VWS V13.01,2013-07-18 09:09:00,
2013-07-18 04:14:00,77.1,68.6,30.14,South,184,0.0,2.0,75,0.00,,---,0.00,VWS V13.01,2013-07-18 09:14:00,
2013-07-18 04:19:00,77.0,68.5,30.14,South,184,0.0,2.0,75,0.00,,---,0.00,VWS V13.01,2013-07-18 09:19:00,
2013-07-18 04:24:00,76.9,68.4,30.14,South,184,0.0,2.0,75,0.00,,---,0.00,VWS V13.01,2013-07-18 09:24:00,
2013-07-18 04:29:00,76.8,68.3,30.14,South,184,0.0,2.0,75,0.00,,---,0.00,VWS V13.01,2013-07-18 09:29:00,
2013-07-18 04:34:00,76.7,68.6,30.14,South,184,2.0,3.0,76,0.00,,---,0.00,VWS V13.01,2013-07-18 09:34:00,
2013-07-18 04:39:00,76.7,68.6,30.14,South,184,3.0,4.0,76,0.00,,---,0.00,VWS V13.01,2013-07-18 09:39:00,
2013-07-18 04:44:00,76.5,68.8,30.14,South,184,3.0,5.0,77,0.00,,---,0.00,VWS V13.01,2013-07-18 09:44:00,
2013-07-18 04:49:00,76.4,68.7,30.14,South,184,2.0,5.0,77,0.00,,---,0.00,VWS V13.01,2013-07-18 09:49:00,
2013-07-18 04:54:00,76.4,68.7,30.14,South,184,4.0,5.0,77,0.00,,---,0.00,VWS V13.01,2013-07-18 09:54:00,
2013-07-18 04:59:00,76.3,68.6,30.14,South,184,3.0,5.0,77,0.00,,---,0.00,VWS V13.01,2013-07-18 09:59:00,
2013-07-18 05:04:00,76.2,68.5,30.14,South,184,2.0,5.0,77,0.00,,---,0.00,VWS V13.01,2013-07-18 10:04:00,
2013-07-18 05:09:00,76.2,68.5,30.14,South,185,3.0,4.0,77,0.00,,---,0.00,VWS V13.01,2013-07-18 10:09:00,
2013-07-18 05:14:00,76.2,68.5,30.14,South,184,1.0,4.0,77,0.00,,---,0.00,VWS V13.01,2013-07-18 10:14:00,
2013-07-18 05:19:00,76.2,68.5,30.14,South,184,2.0,4.0,77,0.00,,---,0.00,VWS V13.01,2013-07-18 10:19:00,
2013-07-18 05:24:00,76.1,68.4,30.14,South,184,1.0,4.0,77,0.00,,---,0.00,VWS V13.01,2013-07-18 10:24:00,
2013-07-18 05:29:00,76.1,68.4,30.15,South,184,1.0,4.0,77,0.00,,---,0.00,VWS V13.01,2013-07-18 10:29:00,
2013-07-18 05:34:00,76.1,68.4,30.15,South,184,0.0,4.0,77,0.00,,---,0.00,VWS V13.01,2013-07-18 10:34:00,
2013-07-18 05:39:00,76.0,68.3,30.15,South,184,0.0,0.0,77,0.00,,---,0.00,VWS V13.01,2013-07-18 10:39:00,
2013-07-18 05:44:00,76.0,68.3,30.15,South,184,0.0,0.0,77,0.00,,---,0.00,VWS V13.01,2013-07-18 10:44:00,
2013-07-18 05:49:00,75.9,68.2,30.15,South,184,0.0,0.0,77,0.00,,---,0.00,VWS V13.01,2013-07-18 10:49:00,
2013-07-18 05:54:00,75.9,68.2,30.15,South,184,0.0,0.0,77,0.00,,---,0.00,VWS V13.01,2013-07-18 10:54:00,
2013-07-18 05:59:00,75.7,68.0,30.15,South,184,0.0,0.0,77,0.00,,---,0.00,VWS V13.01,2013-07-18 10:59:00,
2013-07-18 06:04:00,75.7,68.0,30.15,South,185,0.0,0.0,77,0.00,,---,0.00,VWS V13.01,2013-07-18 11:04:00,
2013-07-18 06:09:00,75.5,68.2,30.15,South,184,0.0,0.0,78,0.00,,---,0.00,VWS V13.01,2013-07-18 11:09:00,
2013-07-18 06:14:00,75.4,68.1,30.15,South,184,0.0,0.0,78,0.00,,---,0.00,VWS V13.01,2013-07-18 11:14:00,
2013-07-18 06:19:00,75.3,68.0,30.15,South,184,0.0,0.0,78,0.00,,---,0.00,VWS V13.01,2013-07-18 11:19:00,
2013-07-18 06:24:00,75.3,68.0,30.15,South,184,0.0,0.0,78,0.00,,---,0.00,VWS V13.01,2013-07-18 11:24:00,
2013-07-18 06:29:00,75.2,67.9,30.15,South,184,0.0,0.0,78,0.00,,---,0.00,VWS V13.01,2013-07-18 11:29:00,
2013-07-18 06:34:00,75.1,68.2,30.15,South,184,0.0,0.0,79,0.00,,---,0.00,VWS V13.01,2013-07-18 11:34:00,
2013-07-18 06:39:00,75.0,68.1,30.16,South,184,0.0,0.0,79,0.00,,---,0.00,VWS V13.01,2013-07-18 11:39:00,
2013-07-18 06:44:00,75.0,68.1,30.16,South,184,0.0,0.0,79,0.00,,---,0.00,VWS V13.01,2013-07-18 11:44:00,
2013-07-18 06:49:00,75.1,68.9,30.16,South,184,0.0,0.0,81,0.00,,---,0.00,VWS V13.01,2013-07-18 11:49:00,
2013-07-18 06:54:00,75.2,69.0,30.16,South,184,0.0,0.0,81,0.00,,---,0.00,VWS V13.01,2013-07-18 11:54:00,
2013-07-18 06:59:00,75.2,69.0,30.16,South,184,0.0,0.0,81,0.00,,---,0.00,VWS V13.01,2013-07-18 11:59:00,
2013-07-18 07:04:00,75.3,69.4,30.16,South,184,0.0,0.0,82,0.00,,---,0.00,VWS V13.01,2013-07-18 12:04:00,
2013-07-18 07:09:00,75.3,69.4,30.16,South,185,0.0,0.0,82,0.00,,---,0.00,VWS V13.01,2013-07-18 12:09:00,
2013-07-18 07:14:00,75.4,69.5,30.16,South,185,0.0,0.0,82,0.00,,---,0.00,VWS V13.01,2013-07-18 12:14:00,
2013-07-18 07:19:00,75.6,69.7,30.16,South,184,0.0,0.0,82,0.00,,---,0.00,VWS V13.01,2013-07-18 12:19:00,
2013-07-18 07:24:00,75.7,69.8,30.16,South,184,0.0,0.0,82,0.00,,---,0.00,VWS V13.01,2013-07-18 12:24:00,
2013-07-18 07:29:00,75.9,70.0,30.16,South,184,0.0,0.0,82,0.00,,---,0.00,VWS V13.01,2013-07-18 12:29:00,
2013-07-18 07:34:00,76.2,69.9,30.16,South,184,0.0,0.0,81,0.00,,---,0.00,VWS V13.01,2013-07-18 12:34:00,
2013-07-18 07:39:00,76.5,70.2,30.16,South,184,0.0,0.0,81,0.00,,---,0.00,VWS V13.01,2013-07-18 12:39:00,
2013-07-18 07:44:00,76.9,70.3,30.16,South,184,0.0,0.0,80,0.00,,---,0.00,VWS V13.01,2013-07-18 12:44:00,
2013-07-18 07:49:00,77.4,70.4,30.16,South,185,0.0,2.0,79,0.00,,---,0.00,VWS V13.01,2013-07-18 12:49:00,
2013-07-18 07:54:00,78.1,71.1,30.15,South,184,0.0,3.0,79,0.00,,---,0.00,VWS V13.01,2013-07-18 12:54:00,
2013-07-18 07:59:00,78.7,70.9,30.15,South,185,0.0,3.0,77,0.00,,---,0.00,VWS V13.01,2013-07-18 12:59:00,
2013-07-18 08:04:00,79.5,70.9,30.15,South,185,0.0,3.0,75,0.00,,---,0.00,VWS V13.01,2013-07-18 13:04:00,
2013-07-18 08:09:00,80.1,71.1,30.15,South,184,0.0,0.0,74,0.00,,---,0.00,VWS V13.01,2013-07-18 13:09:00,
2013-07-18 08:14:00,80.7,71.2,30.16,South,184,0.0,2.0,73,0.00,,---,0.00,VWS V13.01,2013-07-18 13:14:00,
2013-07-18 08:19:00,81.1,71.2,30.16,South,184,0.0,2.0,72,0.00,,---,0.00,VWS V13.01,2013-07-18 13:19:00,
2013-07-18 08:24:00,81.3,71.4,30.16,South,185,3.0,3.0,72,0.00,,---,0.00,VWS V13.01,2013-07-18 13:24:00,
2013-07-18 08:29:00,81.4,71.1,30.16,South,185,0.0,3.0,71,0.00,,---,0.00,VWS V13.01,2013-07-18 13:29:00,
2013-07-18 08:34:00,81.5,71.2,30.16,South,184,0.0,3.0,71,0.00,,---,0.00,VWS V13.01,2013-07-18 13:34:00,
2013-07-18 08:39:00,81.6,71.3,30.16,South,184,0.0,0.0,71,0.00,,---,0.00,VWS V13.01,2013-07-18 13:39:00,
2013-07-18 08:44:00,81.7,71.0,30.16,South,184,1.0,2.0,70,0.00,,---,0.00,VWS V13.01,2013-07-18 13:44:00,
2013-07-18 08:49:00,81.8,71.5,30.16,South,184,0.0,2.0,71,0.00,,---,0.00,VWS V13.01,2013-07-18 13:49:00,
2013-07-18 08:54:00,81.9,71.2,30.16,South,184,0.0,2.0,70,0.00,,---,0.00,VWS V13.01,2013-07-18 13:54:00,
2013-07-18 09:00:00,82.0,71.3,30.16,South,184,0.0,2.0,70,0.00,,---,0.00,VWS V13.01,2013-07-18 14:00:00,
2013-07-18 09:05:00,82.2,71.4,30.16,South,185,0.0,2.0,70,0.00,,---,0.00,VWS V13.01,2013-07-18 14:05:00,
2013-07-18 09:10:00,82.6,71.8,30.16,South,184,0.0,0.0,70,0.00,,---,0.00,VWS V13.01,2013-07-18 14:10:00,
2013-07-18 09:15:00,82.9,71.7,30.16,South,185,0.0,2.0,69,0.00,,---,0.00,VWS V13.01,2013-07-18 14:15:00,
2013-07-18 09:20:00,83.3,72.1,30.16,South,184,0.0,2.0,69,0.00,,---,0.00,VWS V13.01,2013-07-18 14:20:00,
2013-07-18 09:25:00,83.7,72.0,30.16,South,185,0.0,2.0,68,0.00,,---,0.00,VWS V13.01,2013-07-18 14:25:00,
2013-07-18 09:30:00,84.1,72.0,30.16,South,184,0.0,2.0,67,0.00,,---,0.00,VWS V13.01,2013-07-18 14:30:00,
2013-07-18 09:35:00,84.3,72.6,30.16,South,184,0.0,2.0,68,0.00,,---,0.00,VWS V13.01,2013-07-18 14:35:00,
2013-07-18 09:40:00,84.5,71.9,30.16,South,184,0.0,2.0,66,0.00,,---,0.00,VWS V13.01,2013-07-18 14:40:00,
2013-07-18 09:45:00,84.9,71.8,30.16,South,185,2.0,4.0,65,0.00,,---,0.00,VWS V13.01,2013-07-18 14:45:00,
2013-07-18 09:50:00,85.2,72.1,30.16,South,184,0.0,5.0,65,0.00,,---,0.00,VWS V13.01,2013-07-18 14:50:00,
2013-07-18 09:55:00,85.5,72.4,30.15,South,184,0.0,5.0,65,0.00,,---,0.00,VWS V13.01,2013-07-18 14:55:00,
2013-07-18 10:00:00,85.9,72.8,30.15,South,185,0.0,5.0,65,0.00,,---,0.00,VWS V13.01,2013-07-18 15:00:00,
2013-07-18 10:05:00,86.2,73.1,30.15,South,185,0.0,5.0,65,0.00,,---,0.00,VWS V13.01,2013-07-18 15:05:00,
2013-07-18 10:10:00,86.5,72.9,30.16,South,184,2.0,2.0,64,0.00,,---,0.00,VWS V13.01,2013-07-18 15:10:00,
2013-07-18 10:15:00,87.0,72.9,30.15,South,184,0.0,3.0,63,0.00,,---,0.00,VWS V13.01,2013-07-18 15:15:00,
2013-07-18 10:20:00,87.2,73.6,30.15,South,184,0.0,3.0,64,0.00,,---,0.00,VWS V13.01,2013-07-18 15:20:00,
2013-07-18 10:25:00,87.5,72.4,30.15,South,184,0.0,5.0,61,0.00,,---,0.00,VWS V13.01,2013-07-18 15:25:00,
2013-07-18 10:30:00,87.7,72.6,30.15,South,184,0.0,5.0,61,0.00,,---,0.00,VWS V13.01,2013-07-18 15:30:00,
2013-07-18 10:35:00,87.9,71.8,30.15,South,184,0.0,5.0,59,0.00,,---,0.00,VWS V13.01,2013-07-18 15:35:00,
2013-07-18 10:40:00,87.9,72.3,30.15,South,184,0.0,4.0,60,0.00,,---,0.00,VWS V13.01,2013-07-18 15:40:00,
2013-07-18 10:45:00,88.1,72.0,30.15,South,184,2.0,4.0,59,0.00,,---,0.00,VWS V13.01,2013-07-18 15:45:00,
2013-07-18 10:50:00,88.4,72.8,30.15,South,185,2.0,4.0,60,0.00,,---,0.00,VWS V13.01,2013-07-18 15:50:00,
2013-07-18 10:55:00,88.5,71.8,30.15,South,184,4.0,5.0,58,0.00,,---,0.00,VWS V13.01,2013-07-18 15:55:00,
2013-07-18 11:00:00,88.4,71.2,30.15,South,184,0.0,5.0,57,0.00,,---,0.00,VWS V13.01,2013-07-18 16:00:00,
2013-07-18 11:05:00,88.4,71.8,30.15,South,184,0.0,5.0,58,0.00,,---,0.00,VWS V13.01,2013-07-18 16:05:00,
2013-07-18 11:10:00,88.3,71.2,30.15,South,185,0.0,3.0,57,0.00,,---,0.00,VWS V13.01,2013-07-18 16:10:00,
2013-07-18 11:15:00,88.1,71.0,30.15,South,185,0.0,3.0,57,0.00,,---,0.00,VWS V13.01,2013-07-18 16:15:00,
2013-07-18 11:20:00,88.1,71.5,30.14,South,185,0.0,3.0,58,0.00,,---,0.00,VWS V13.01,2013-07-18 16:20:00,
2013-07-18 11:25:00,88.0,71.4,30.14,South,184,1.0,3.0,58,0.00,,---,0.00,VWS V13.01,2013-07-18 16:25:00,
2013-07-18 11:30:00,88.0,71.4,30.14,South,184,0.0,3.0,58,0.00,,---,0.00,VWS V13.01,2013-07-18 16:30:00,
2013-07-18 11:35:00,88.3,71.2,30.13,South,184,0.0,3.0,57,0.00,,---,0.00,VWS V13.01,2013-07-18 16:35:00,
2013-07-18 11:40:00,88.4,70.7,30.13,South,185,0.0,1.0,56,0.00,,---,0.00,VWS V13.01,2013-07-18 16:40:00,
2013-07-18 11:45:00,88.4,70.7,30.14,South,184,0.0,1.0,56,0.00,,---,0.00,VWS V13.01,2013-07-18 16:45:00,
2013-07-18 11:50:00,88.4,70.7,30.13,South,184,0.0,3.0,56,0.00,,---,0.00,VWS V13.01,2013-07-18 16:50:00,
2013-07-18 11:55:00,88.5,70.8,30.13,South,185,1.0,6.0,56,0.00,,---,0.00,VWS V13.01,2013-07-18 16:55:00,
2013-07-18 12:00:00,88.8,71.1,30.13,South,184,0.0,6.0,56,0.00,,---,0.00,VWS V13.01,2013-07-18 17:00:00,
2013-07-18 12:05:00,89.3,72.6,30.13,South,184,0.0,6.0,58,0.00,,---,0.00,VWS V13.01,2013-07-18 17:05:00,
2013-07-18 12:10:00,90.1,72.3,30.12,South,184,0.0,1.0,56,0.00,,---,0.00,VWS V13.01,2013-07-18 17:10:00,
2013-07-18 12:15:00,90.7,71.8,30.12,South,184,0.0,2.0,54,0.00,,---,0.00,VWS V13.01,2013-07-18 17:15:00,
2013-07-18 12:20:00,91.3,71.8,30.12,South,184,0.0,3.0,53,0.00,,---,0.00,VWS V13.01,2013-07-18 17:20:00,
2013-07-18 12:25:00,91.8,69.9,30.12,South,184,0.0,6.0,49,0.00,,---,0.00,VWS V13.01,2013-07-18 17:25:00,
2013-07-18 12:30:00,91.8,70.5,30.11,South,184,3.0,6.0,50,0.00,,---,0.00,VWS V13.01,2013-07-18 17:30:00,
2013-07-18 12:35:00,91.8,69.3,30.11,South,184,0.0,6.0,48,0.00,,---,0.00,VWS V13.01,2013-07-18 17:35:00,
2013-07-18 12:40:00,92.2,70.3,30.11,NNW,333,3.0,6.0,49,0.00,,---,0.00,VWS V13.01,2013-07-18 17:40:00,
2013-07-18 12:45:00,92.4,69.3,30.11,NW,306,0.0,6.0,47,0.00,,---,0.00,VWS V13.01,2013-07-18 17:45:00,
2013-07-18 12:50:00,92.7,69.5,30.10,SW,215,4.0,6.0,47,0.00,,---,0.00,VWS V13.01,2013-07-18 17:50:00,
2013-07-18 12:55:00,92.8,69.6,30.09,SSW,192,0.0,6.0,47,0.00,,---,0.00,VWS V13.01,2013-07-18 17:55:00,
2013-07-18 13:00:00,92.8,69.0,30.09,SW,227,1.0,9.0,46,0.00,,---,0.00,VWS V13.01,2013-07-18 18:00:00,
2013-07-18 13:05:00,93.1,71.7,30.09,SW,227,0.0,9.0,50,0.00,,---,0.00,VWS V13.01,2013-07-18 18:05:00,
2013-07-18 13:10:00,93.7,69.8,30.08,SW,217,2.0,5.0,46,0.00,,---,0.00,VWS V13.01,2013-07-18 18:10:00,
2013-07-18 13:15:00,93.9,68.7,30.08,West,262,0.0,8.0,44,0.00,,---,0.00,VWS V13.01,2013-07-18 18:15:00,
2013-07-18 13:20:00,94.4,69.1,30.08,SSE,164,2.0,8.0,44,0.00,,---,0.00,VWS V13.01,2013-07-18 18:20:00,
2013-07-18 13:25:00,94.9,68.9,30.08,South,187,2.0,9.0,43,0.00,,---,0.00,VWS V13.01,2013-07-18 18:25:00,
2013-07-18 13:30:00,95.6,69.6,30.07,South,185,3.0,9.0,43,0.00,,---,0.00,VWS V13.01,2013-07-18 18:30:00,
2013-07-18 13:35:00,96.2,69.4,30.07,South,185,0.0,9.0,42,0.00,,---,0.00,VWS V13.01,2013-07-18 18:35:00,
2013-07-18 13:41:00,96.2,68.7,30.06,South,186,0.0,4.0,41,0.00,,---,0.00,VWS V13.01,2013-07-18 18:41:00,
2013-07-18 13:46:00,96.2,69.4,30.06,South,186,0.0,5.0,42,0.00,,---,0.00,VWS V13.01,2013-07-18 18:46:00,
2013-07-18 13:51:00,95.5,68.8,30.06,South,186,2.0,5.0,42,0.00,,---,0.00,VWS V13.01,2013-07-18 18:51:00,
2013-07-18 13:56:00,95.5,68.8,30.05,WNW,289,3.0,5.0,42,0.00,,---,0.00,VWS V13.01,2013-07-18 18:56:00,
2013-07-18 14:01:00,95.3,69.3,30.05,WNW,294,0.0,5.0,43,0.00,,---,0.00,VWS V13.01,2013-07-18 19:01:00,
2013-07-18 14:06:00,95.4,68.0,30.05,NNW,339,1.0,7.0,41,0.00,,---,0.00,VWS V13.01,2013-07-18 19:06:00,
2013-07-18 14:11:00,95.6,69.6,30.05,NNW,338,0.0,1.0,43,0.00,,---,0.00,VWS V13.01,2013-07-18 19:11:00,
2013-07-18 14:16:00,95.8,67.6,30.05,NW,317,2.0,10.0,40,0.00,,---,0.00,VWS V13.01,2013-07-18 19:16:00,
2013-07-18 14:21:00,95.9,66.2,30.04,West,281,1.0,10.0,38,0.00,,---,0.00,VWS V13.01,2013-07-18 19:21:00,
2013-07-18 14:26:00,96.0,68.5,30.04,NW,321,0.0,10.0,41,0.00,,---,0.00,VWS V13.01,2013-07-18 19:26:00,
2013-07-18 14:31:00,95.9,69.1,30.03,West,263,2.0,10.0,42,0.00,,---,0.00,VWS V13.01,2013-07-18 19:31:00,
2013-07-18 14:36:00,96.2,69.4,30.03,NW,323,1.0,10.0,42,0.00,,---,0.00,VWS V13.01,2013-07-18 19:36:00,
2013-07-18 14:41:00,96.2,70.8,30.03,NW,310,0.0,7.0,44,0.00,,---,0.00,VWS V13.01,2013-07-18 19:41:00,
2013-07-18 14:46:00,96.8,70.6,30.02,West,281,1.0,7.0,43,0.00,,---,0.00,VWS V13.01,2013-07-18 19:46:00,
2013-07-18 14:51:00,96.9,70.7,30.02,WSW,246,0.0,7.0,43,0.00,,---,0.00,VWS V13.01,2013-07-18 19:51:00,
2013-07-18 14:56:00,96.8,67.8,30.01,WNW,295,0.0,7.0,39,0.00,,---,0.00,VWS V13.01,2013-07-18 19:56:00,
2013-07-18 15:01:00,97.1,66.5,30.01,WNW,301,1.0,7.0,37,0.00,,---,0.00,VWS V13.01,2013-07-18 20:01:00,
2013-07-18 15:06:00,96.7,65.4,30.01,NW,321,2.0,7.0,36,0.00,,---,0.00,VWS V13.01,2013-07-18 20:06:00,
2013-07-18 15:11:00,96.2,65.7,30.01,NNW,329,0.0,3.0,37,0.00,,---,0.00,VWS V13.01,2013-07-18 20:11:00,
2013-07-18 15:16:00,96.5,66.8,30.01,NNW,331,0.0,3.0,38,0.00,,---,0.00,VWS V13.01,2013-07-18 20:16:00,
2013-07-18 15:21:00,96.8,67.0,30.01,East,86,1.0,5.0,38,0.00,,---,0.00,VWS V13.01,2013-07-18 20:21:00,
2013-07-18 15:26:00,97.1,66.5,30.01,NNE,30,0.0,5.0,37,0.00,,---,0.00,VWS V13.01,2013-07-18 20:26:00,
2013-07-18 15:31:00,97.9,67.2,30.01,WNW,299,1.0,5.0,37,0.00,,---,0.00,VWS V13.01,2013-07-18 20:31:00,
2013-07-18 15:36:00,96.8,67.0,30.01,NE,53,5.0,7.0,38,0.00,,---,0.00,VWS V13.01,2013-07-18 20:36:00,
2013-07-18 15:41:00,98.6,66.2,30.01,NE,54,0.0,5.0,35,0.00,,---,0.00,VWS V13.01,2013-07-18 20:41:00,
2013-07-18 15:46:00,97.6,64.5,30.00,NE,53,0.0,5.0,34,0.00,,---,0.00,VWS V13.01,2013-07-18 20:46:00,
2013-07-18 15:51:00,98.1,66.6,30.00,ENE,57,0.0,5.0,36,0.00,,---,0.00,VWS V13.01,2013-07-18 20:51:00,
2013-07-18 15:56:00,98.7,67.9,30.00,West,264,0.0,5.0,37,0.00,,---,0.00,VWS V13.01,2013-07-18 20:56:00,
2013-07-18 16:01:00,98.4,68.4,30.00,WNW,295,0.0,7.0,38,0.00,,---,0.00,VWS V13.01,2013-07-18 21:01:00,
2013-07-18 16:07:00,98.4,68.4,30.00,NW,318,0.0,0.0,38,0.00,,---,0.00,VWS V13.01,2013-07-18 21:07:00,
2013-07-18 16:12:00,98.4,69.9,30.00,NW,317,0.0,4.0,40,0.00,,---,0.00,VWS V13.01,2013-07-18 21:12:00,
2013-07-18 16:17:00,98.1,68.2,29.99,NW,315,6.0,6.0,38,0.00,,---,0.00,VWS V13.01,2013-07-18 21:17:00,
2013-07-18 16:22:00,98.0,70.3,29.99,NW,323,0.0,6.0,41,0.00,,---,0.00,VWS V13.01,2013-07-18 21:22:00,
2013-07-18 16:27:00,97.8,67.9,29.99,NNW,338,0.0,9.0,38,0.00,,---,0.00,VWS V13.01,2013-07-18 21:27:00,
2013-07-18 16:32:00,97.7,66.2,29.98,NW,314,0.0,9.0,36,0.00,,---,0.00,VWS V13.01,2013-07-18 21:32:00,
2013-07-18 16:37:00,97.4,67.6,29.99,NW,317,1.0,3.0,38,0.00,,---,0.00,VWS V13.01,2013-07-18 21:37:00,
2013-07-18 16:42:00,97.6,66.2,29.99,WSW,242,0.0,3.0,36,0.00,,---,0.00,VWS V13.01,2013-07-18 21:42:00,
2013-07-18 16:47:00,97.4,68.3,29.99,WNW,283,0.0,5.0,39,0.00,,---,0.00,VWS V13.01,2013-07-18 21:47:00,
2013-07-18 16:52:00,97.6,67.0,29.99,West,265,1.0,5.0,37,0.00,,---,0.00,VWS V13.01,2013-07-18 21:52:00,
2013-07-18 16:57:00,97.8,65.5,29.99,West,261,0.0,5.0,35,0.00,,---,0.00,VWS V13.01,2013-07-18 21:57:00,
2013-07-18 17:02:00,97.2,66.6,29.99,West,261,0.0,5.0,37,0.00,,---,0.00,VWS V13.01,2013-07-18 22:02:00,
2013-07-18 17:07:00,96.7,66.9,29.98,WSW,256,0.0,0.0,38,0.00,,---,0.00,VWS V13.01,2013-07-18 22:07:00,
2013-07-18 17:12:00,96.9,67.1,29.98,WSW,256,0.0,3.0,38,0.00,,---,0.00,VWS V13.01,2013-07-18 22:12:00,
2013-07-18 17:17:00,96.5,68.2,29.98,WSW,256,0.0,3.0,40,0.00,,---,0.00,VWS V13.01,2013-07-18 22:17:00,
2013-07-18 17:22:00,96.3,67.3,29.99,WSW,256,0.0,3.0,39,0.00,,---,0.00,VWS V13.01,2013-07-18 22:22:00,
2013-07-18 17:27:00,96.4,66.7,29.99,WSW,256,0.0,3.0,38,0.00,,---,0.00,VWS V13.01,2013-07-18 22:27:00,
2013-07-18 17:32:00,96.5,67.5,29.99,ENE,57,0.0,3.0,39,0.00,,---,0.00,VWS V13.01,2013-07-18 22:32:00,
2013-07-18 17:37:00,95.9,72.4,30.00,NE,54,0.0,1.0,47,0.01,,---,0.01,VWS V13.01,2013-07-18 22:37:00,
2013-07-18 17:42:00,93.8,72.9,30.00,NNW,334,0.0,3.0,51,0.05,,---,0.06,VWS V13.01,2013-07-18 22:42:00,
2013-07-18 17:47:00,89.4,72.7,30.03,NNE,22,3.0,16.0,58,0.22,,---,0.24,VWS V13.01,2013-07-18 22:47:00,
2013-07-18 17:52:00,84.8,71.7,30.04,NW,324,9.0,22.0,65,0.44,,---,0.46,VWS V13.01,2013-07-18 22:52:00,
2013-07-18 17:57:00,82.7,71.9,30.03,SSW,207,0.0,22.0,70,0.63,,---,0.64,VWS V13.01,2013-07-18 22:57:00,
2013-07-18 18:02:00,81.2,72.5,30.02,SSW,195,2.0,22.0,75,0.70,,---,0.71,VWS V13.01,2013-07-18 23:02:00,
2013-07-18 18:07:00,80.1,72.6,30.02,South,189,0.0,3.0,78,0.74,,---,0.76,VWS V13.01,2013-07-18 23:07:00,
2013-07-18 18:12:00,78.9,71.5,30.01,South,179,6.0,13.0,78,0.86,,---,0.87,VWS V13.01,2013-07-18 23:12:00,
2013-07-18 18:17:00,77.9,71.2,30.01,SSW,213,4.0,13.0,80,0.89,,---,0.89,VWS V13.01,2013-07-18 23:17:00,
2013-07-18 18:22:00,77.4,71.5,30.01,SSE,167,3.0,13.0,82,0.89,,---,0.89,VWS V13.01,2013-07-18 23:22:00,
2013-07-18 18:27:00,77.0,71.1,30.01,SE,126,0.0,13.0,82,0.89,,---,0.89,VWS V13.01,2013-07-18 23:27:00,
2013-07-18 18:32:00,76.8,71.2,30.01,SE,127,0.0,13.0,83,0.89,,---,0.89,VWS V13.01,2013-07-18 23:32:00,
2013-07-18 18:37:00,76.7,71.9,30.02,South,177,0.0,5.0,85,0.89,,---,0.89,VWS V13.01,2013-07-18 23:37:00,
2013-07-18 18:42:00,76.6,71.8,30.03,SSE,157,3.0,10.0,85,0.88,,---,0.89,VWS V13.01,2013-07-18 23:42:00,
2013-07-18 18:47:00,76.5,71.7,30.03,SE,134,0.0,10.0,85,0.88,,---,0.89,VWS V13.01,2013-07-18 23:47:00,
2013-07-18 18:52:00,76.5,72.0,30.03,South,172,0.0,10.0,86,0.88,,---,0.89,VWS V13.01,2013-07-18 23:52:00,
2013-07-18 18:57:00,76.4,71.9,30.03,SE,145,0.0,10.0,86,0.88,,---,0.89,VWS V13.01,2013-07-18 23:57:00,
2013-07-18 19:02:00,76.4,72.2,30.03,SSE,163,0.0,10.0,87,0.88,,---,0.89,VWS V13.01,2013-07-19 00:02:00,
2013-07-18 19:07:00,76.4,72.2,30.02,SSE,161,0.0,2.0,87,0.88,,---,0.89,VWS V13.01,2013-07-19 00:07:00,
2013-07-18 19:12:00,76.5,72.3,30.03,SSE,152,0.0,7.0,87,0.15,,---,0.89,VWS V13.01,2013-07-19 00:12:00,
2013-07-18 19:17:00,76.6,72.1,30.03,SSE,160,0.0,11.0,86,0.15,,---,0.89,VWS V13.01,2013-07-19 00:17:00,
2013-07-18 19:22:00,76.7,72.2,30.03,South,173,0.0,11.0,86,0.15,,---,0.89,VWS V13.01,2013-07-19 00:22:00,
2013-07-18 19:27:00,76.7,71.9,30.03,South,171,0.0,11.0,85,0.15,,---,0.89,VWS V13.01,2013-07-19 00:27:00,
2013-07-18 19:32:00,76.6,71.8,30.03,South,171,0.0,11.0,85,0.15,,---,0.89,VWS V13.01,2013-07-19 00:32:00,
2013-07-18 19:37:00,76.6,72.1,30.03,South,171,0.0,0.0,86,0.15,,---,0.89,VWS V13.01,2013-07-19 00:37:00,
2013-07-18 19:42:00,76.5,72.0,30.03,South,171,0.0,0.0,86,0.00,,---,0.89,VWS V13.01,2013-07-19 00:42:00,
2013-07-18 19:47:00,76.4,71.9,30.03,East,83,0.0,2.0,86,0.00,,---,0.89,VWS V13.01,2013-07-19 00:47:00,
2013-07-18 19:52:00,76.3,71.8,30.04,East,83,0.0,2.0,86,0.00,,---,0.89,VWS V13.01,2013-07-19 00:52:00,
2013-07-18 19:57:00,76.2,71.7,30.04,WSW,254,0.0,2.0,86,0.00,,---,0.89,VWS V13.01,2013-07-19 00:57:00,
2013-07-18 20:02:00,76.1,71.9,30.04,SW,222,0.0,2.0,87,0.00,,---,0.89,VWS V13.01,2013-07-19 01:02:00,
2013-07-18 20:07:00,76.1,71.9,30.04,SW,221,0.0,0.0,87,0.00,,---,0.89,VWS V13.01,2013-07-19 01:07:00,
2013-07-18 20:12:00,76.1,71.9,30.04,SW,222,0.0,0.0,87,0.00,,---,0.89,VWS V13.01,2013-07-19 01:12:00,
2013-07-18 20:17:00,76.1,72.3,30.04,SW,218,0.0,0.0,88,0.00,,---,0.89,VWS V13.01,2013-07-19 01:17:00,
2013-07-18 20:22:00,76.1,72.3,30.03,ESE,107,4.0,4.0,88,0.00,,---,0.89,VWS V13.01,2013-07-19 01:22:00,
2013-07-18 20:27:00,76.0,72.2,30.03,ESE,107,0.0,4.0,88,0.00,,---,0.89,VWS V13.01,2013-07-19 01:27:00,
2013-07-18 20:32:00,75.9,71.8,30.03,ESE,109,0.0,5.0,87,0.00,,---,0.89,VWS V13.01,2013-07-19 01:32:00,
2013-07-18 20:37:00,75.9,71.8,30.03,ESE,109,0.0,0.0,87,0.00,,---,0.89,VWS V13.01,2013-07-19 01:37:00,
2013-07-18 20:42:00,76.1,71.6,30.03,ESE,110,0.0,6.0,86,0.00,,---,0.89,VWS V13.01,2013-07-19 01:42:00,
2013-07-18 20:47:00,76.2,71.4,30.03,SSE,161,0.0,6.0,85,0.00,,---,0.89,VWS V13.01,2013-07-19 01:47:00,
2013-07-18 20:52:00,76.2,71.0,30.03,ESE,107,0.0,6.0,84,0.00,,---,0.89,VWS V13.01,2013-07-19 01:52:00,
2013-07-18 20:57:00,76.2,71.0,30.04,ESE,110,0.0,6.0,84,0.00,,---,0.89,VWS V13.01,2013-07-19 01:57:00,
2013-07-18 21:02:00,76.2,70.7,30.05,ESE,113,0.0,6.0,83,0.00,,---,0.89,VWS V13.01,2013-07-19 02:02:00,
2013-07-18 21:07:00,76.2,70.7,30.05,SE,130,3.0,5.0,83,0.00,,---,0.89,VWS V13.01,2013-07-19 02:07:00,
2013-07-18 21:12:00,76.2,70.3,30.05,SE,145,0.0,5.0,82,0.00,,---,0.89,VWS V13.01,2013-07-19 02:12:00,
2013-07-18 21:17:00,76.3,70.4,30.05,SSE,148,0.0,5.0,82,0.00,,---,0.89,VWS V13.01,2013-07-19 02:17:00,
2013-07-18 21:22:00,76.2,70.3,30.05,South,173,0.0,5.0,82,0.00,,---,0.89,VWS V13.01,2013-07-19 02:22:00,
2013-07-18 21:27:00,76.3,70.1,30.04,South,176,0.0,5.0,81,0.00,,---,0.89,VWS V13.01,2013-07-19 02:27:00,
2013-07-18 21:32:00,76.4,70.1,30.05,South,178,0.0,5.0,81,0.00,,---,0.89,VWS V13.01,2013-07-19 02:32:00,
2013-07-18 21:37:00,76.4,70.1,30.05,South,175,0.0,4.0,81,0.00,,---,0.89,VWS V13.01,2013-07-19 02:37:00,
2013-07-18 21:42:00,76.4,70.1,30.05,SSE,150,0.0,7.0,81,0.00,,---,0.89,VWS V13.01,2013-07-19 02:42:00,
2013-07-18 21:47:00,76.4,70.1,30.05,SSE,150,0.0,7.0,81,0.00,,---,0.89,VWS V13.01,2013-07-19 02:47:00,
2013-07-18 21:52:00,76.3,70.4,30.05,SSE,151,0.0,7.0,82,0.00,,---,0.89,VWS V13.01,2013-07-19 02:52:00,
2013-07-18 21:57:00,76.3,70.4,30.05,SSE,153,0.0,7.0,82,0.00,,---,0.89,VWS V13.01,2013-07-19 02:57:00,
2013-07-18 22:02:00,76.2,70.3,30.04,SSE,152,0.0,7.0,82,0.00,,---,0.89,VWS V13.01,2013-07-19 03:02:00,
2013-07-18 22:07:00,76.1,70.2,30.04,SSE,153,0.0,0.0,82,0.00,,---,0.89,VWS V13.01,2013-07-19 03:07:00,
2013-07-18 22:12:00,76.1,70.2,30.04,SSE,153,0.0,0.0,82,0.00,,---,0.89,VWS V13.01,2013-07-19 03:12:00,
2013-07-18 22:17:00,76.0,70.1,30.04,SSE,152,0.0,0.0,82,0.00,,---,0.89,VWS V13.01,2013-07-19 03:17:00,
2013-07-18 22:22:00,76.0,70.1,30.04,SSE,152,0.0,0.0,82,0.00,,---,0.89,VWS V13.01,2013-07-19 03:22:00,
2013-07-18 22:27:00,75.9,70.0,30.04,SSE,152,0.0,0.0,82,0.00,,---,0.89,VWS V13.01,2013-07-19 03:27:00,
2013-07-18 22:32:00,75.8,69.9,30.04,SSE,152,0.0,0.0,82,0.00,,---,0.89,VWS V13.01,2013-07-19 03:32:00,
2013-07-18 22:38:00,75.8,69.9,30.04,SSE,153,0.0,0.0,82,0.00,,---,0.89,VWS V13.01,2013-07-19 03:38:00,
2013-07-18 22:43:00,75.7,69.8,30.04,SSE,153,0.0,0.0,82,0.00,,---,0.89,VWS V13.01,2013-07-19 03:43:00,
2013-07-18 22:48:00,75.7,70.2,30.04,SSE,153,0.0,0.0,83,0.00,,---,0.89,VWS V13.01,2013-07-19 03:48:00,
2013-07-18 22:53:00,75.6,70.1,30.04,SSE,152,0.0,0.0,83,0.00,,---,0.89,VWS V13.01,2013-07-19 03:53:00,
2013-07-18 22:58:00,75.6,70.1,30.04,SSE,153,0.0,0.0,83,0.00,,---,0.89,VWS V13.01,2013-07-19 03:58:00,
2013-07-18 23:01:00,75.6,70.1,30.04,SSE,153,0.0,0.0,83,0.00,,---,0.89,VWS V13.01,2013-07-19 04:01:00,
2013-07-18 23:06:00,75.5,70.0,30.04,SSE,153,0.0,0.0,83,0.00,,---,0.89,VWS V13.01,2013-07-19 04:06:00,
2013-07-18 23:11:00,75.4,69.9,30.03,SSE,153,0.0,0.0,83,0.00,,---,0.89,VWS V13.01,2013-07-19 04:11:00,
2013-07-18 23:16:00,75.3,69.8,30.03,SSE,152,0.0,0.0,83,0.00,,---,0.89,VWS V13.01,2013-07-19 04:16:00,
2013-07-18 23:21:00,75.2,69.7,30.04,SSE,153,0.0,0.0,83,0.00,,---,0.89,VWS V13.01,2013-07-19 04:21:00,
2013-07-18 23:26:00,75.1,69.6,30.04,SSE,153,0.0,0.0,83,0.00,,---,0.89,VWS V13.01,2013-07-19 04:26:00,
2013-07-18 23:31:00,75.0,69.5,30.04,SSE,153,0.0,0.0,83,0.00,,---,0.89,VWS V13.01,2013-07-19 04:31:00,
2013-07-18 23:36:00,74.9,69.4,30.03,SSE,152,0.0,0.0,83,0.00,,---,0.89,VWS V13.01,2013-07-19 04:36:00,
2013-07-18 23:41:00,74.9,69.7,30.04,SSE,153,0.0,3.0,84,0.00,,---,0.89,VWS V13.01,2013-07-19 04:41:00,
2013-07-18 23:46:00,74.8,69.7,30.04,SSE,152,0.0,3.0,84,0.00,,---,0.89,VWS V13.01,2013-07-19 04:46:00,
2013-07-18 23:51:00,74.8,69.7,30.04,SSE,152,0.0,3.0,84,0.00,,---,0.89,VWS V13.01,2013-07-19 04:51:00,
2013-07-18 23:56:00,74.7,69.6,30.04,SSE,153,0.0,3.0,84,0.00,,---,0.89,VWS V13.01,2013-07-19 04:56:00,